Time,TemperatureF,DewpointF,PressureIn,WindDirection,WindDirectionDegrees,WindSpeedMPH,WindSpeedGustMPH,Humidity,HourlyPrecipIn,Conditions,Clouds,dailyrainin,SolarRadiationWatts/m^2,SoftwareType,DateUTC
2013-10-04 00:12:00,66.5,27.0,29.99,ENE,74,2.0,8.0,23,0.00,,,0.00,0,weatherlink.com 1.10,2013-10-04 07:12:00,
2013-10-04 00:27:00,66.1,28.0,29.99,NE,56,5.0,12.0,24,0.00,,,0.00,0,weatherlink.com 1.10,2013-10-04 07:27:00,
2013-10-04 00:42:00,66.0,28.0,29.98,SSW,213,2.0,9.0,24,0.00,,,0.00,0,weatherlink.com 1.10,2013-10-04 07:42:00,
2013-10-04 00:57:00,66.1,28.0,29.97,South,171,1.0,17.0,24,0.00,,,0.00,0,weatherlink.com 1.10,2013-10-04 07:57:00,
2013-10-04 01:12:00,66.0,28.0,29.98,SE,124,1.0,9.0,24,0.00,,,0.00,0,weatherlink.com 1.10,2013-10-04 08:12:00,
2013-10-04 01:27:00,65.7,29.0,29.98,South,186,2.0,9.0,25,0.00,,,0.00,0,weatherlink.com 1.10,2013-10-04 08:27:00,
2013-10-04 01:42:00,65.5,28.0,29.98,WSW,242,0.0,8.0,24,0.00,,,0.00,0,weatherlink.com 1.10,2013-10-04 08:42:00,
2013-10-04 01:57:00,65.2,27.0,29.98,SSE,148,1.0,7.0,24,0.00,,,0.00,0,weatherlink.com 1.10,2013-10-04 08:57:00,
2013-10-04 02:13:00,64.8,27.0,29.98,NNW,341,0.0,5.0,24,0.00,,,0.00,0,weatherlink.com 1.10,2013-10-04 09:13:00,
2013-10-04 02:28:00,64.6,28.0,29.99,ENE,76,2.0,9.0,25,0.00,,,0.00,0,weatherlink.com 1.10,2013-10-04 09:28:00,
2013-10-04 02:43:00,64.2,28.0,29.98,WSW,252,2.0,9.0,25,0.00,,,0.00,0,weatherlink.com 1.10,2013-10-04 09:43:00,
2013-10-04 02:58:00,63.9,27.0,29.98,NNE,15,1.0,6.0,25,0.00,,,0.00,0,weatherlink.com 1.10,2013-10-04 09:58:00,
2013-10-04 03:13:00,63.5,28.0,29.98,North,349,1.0,5.0,26,0.00,,,0.00,0,weatherlink.com 1.10,2013-10-04 10:13:00,
2013-10-04 03:28:00,63.3,29.0,29.98,West,266,1.0,6.0,27,0.00,,,0.00,0,weatherlink.com 1.10,2013-10-04 10:28:00,
2013-10-04 03:43:00,63.1,27.0,29.97,NNW,340,0.0,5.0,26,0.00,,,0.00,0,weatherlink.com 1.10,2013-10-04 10:43:00,
2013-10-04 03:58:00,63.5,27.0,29.97,SSW,202,0.0,9.0,25,0.00,,,0.00,0,weatherlink.com 1.10,2013-10-04 10:58:00,
2013-10-04 04:13:00,63.3,27.0,29.97,SSE,164,0.0,6.0,25,0.00,,,0.00,0,weatherlink.com 1.10,2013-10-04 11:13:00,
2013-10-04 04:28:00,62.9,27.0,29.98,SSW,198,0.0,6.0,26,0.00,,,0.00,0,weatherlink.com 1.10,2013-10-04 11:28:00,
2013-10-04 04:43:00,62.7,27.0,29.98,North,355,2.0,7.0,26,0.00,,,0.00,0,weatherlink.com 1.10,2013-10-04 11:43:00,
2013-10-04 04:58:00,62.1,28.0,29.98,WNW,282,4.0,6.0,27,0.00,,,0.00,0,weatherlink.com 1.10,2013-10-04 11:58:00,
2013-10-04 05:13:00,61.6,28.0,29.99,NW,322,0.0,4.0,28,0.00,,,0.00,0,weatherlink.com 1.10,2013-10-04 12:13:00,
2013-10-04 05:28:00,61.7,27.0,29.99,SW,232,0.0,4.0,27,0.00,,,0.00,0,weatherlink.com 1.10,2013-10-04 12:28:00,
2013-10-04 05:43:00,61.2,27.0,29.99,SE,132,1.0,3.0,27,0.00,,,0.00,0,weatherlink.com 1.10,2013-10-04 12:43:00,
2013-10-04 05:58:00,60.7,27.0,30.00,SE,143,0.0,2.0,28,0.00,,,0.00,0,weatherlink.com 1.10,2013-10-04 12:58:00,
2013-10-04 06:13:00,60.6,28.0,30.00,SSE,147,0.0,3.0,29,0.00,,,0.00,0,weatherlink.com 1.10,2013-10-04 13:13:00,
2013-10-04 06:28:00,59.8,27.0,30.00,SE,143,0.0,2.0,29,0.00,,,0.00,0,weatherlink.com 1.10,2013-10-04 13:28:00,
2013-10-04 06:43:00,59.9,27.0,30.01,SE,142,0.0,1.0,29,0.00,,,0.00,0,weatherlink.com 1.10,2013-10-04 13:43:00,
2013-10-04 06:58:00,58.9,27.0,30.01,SE,142,0.0,1.0,30,0.00,,,0.00,0,weatherlink.com 1.10,2013-10-04 13:58:00,
2013-10-04 07:13:00,58.5,28.0,30.02,SE,142,0.0,0.0,31,0.00,,,0.00,0,weatherlink.com 1.10,2013-10-04 14:13:00,
2013-10-04 07:28:00,58.2,28.0,30.02,SE,142,0.0,0.0,31,0.00,,,0.00,18,weatherlink.com 1.10,2013-10-04 14:28:00,
2013-10-04 07:43:00,58.5,29.0,30.02,SE,142,0.0,0.0,33,0.00,,,0.00,25,weatherlink.com 1.10,2013-10-04 14:43:00,
2013-10-04 07:58:00,59.4,31.0,30.03,SE,142,0.0,0.0,34,0.00,,,0.00,33,weatherlink.com 1.10,2013-10-04 14:58:00,
2013-10-04 08:13:00,61.3,30.0,30.03,ESE,117,0.0,4.0,31,0.00,,,0.00,40,weatherlink.com 1.10,2013-10-04 15:13:00,
2013-10-04 08:28:00,62.9,29.0,30.04,ESE,118,1.0,4.0,28,0.00,,,0.00,44,weatherlink.com 1.10,2013-10-04 15:28:00,
2013-10-04 08:43:00,64.2,29.0,30.04,East,97,3.0,10.0,27,0.00,,,0.00,47,weatherlink.com 1.10,2013-10-04 15:43:00,
2013-10-04 08:58:00,64.9,30.0,30.05,SE,145,1.0,9.0,27,0.00,,,0.00,49,weatherlink.com 1.10,2013-10-04 15:58:00,
2013-10-04 09:13:00,66.1,29.0,30.05,SE,142,3.0,9.0,25,0.00,,,0.00,408,weatherlink.com 1.10,2013-10-04 16:13:00,
2013-10-04 09:28:00,66.7,29.0,30.06,NNW,329,3.0,7.0,24,0.00,,,0.00,454,weatherlink.com 1.10,2013-10-04 16:28:00,
2013-10-04 09:43:00,67.3,28.0,30.06,South,178,2.0,11.0,23,0.00,,,0.00,497,weatherlink.com 1.10,2013-10-04 16:43:00,
2013-10-04 09:59:00,67.8,29.0,30.07,South,174,5.0,12.0,23,0.00,,,0.00,540,weatherlink.com 1.10,2013-10-04 16:59:00,
2013-10-04 10:14:00,68.0,29.0,30.07,North,350,6.0,12.0,23,0.00,,,0.00,578,weatherlink.com 1.10,2013-10-04 17:14:00,
2013-10-04 10:29:00,69.2,30.0,30.07,WNW,283,1.0,8.0,23,0.00,,,0.00,615,weatherlink.com 1.10,2013-10-04 17:29:00,
2013-10-04 10:35:00,69.4,30.0,30.07,SE,143,3.0,3.0,23,0.00,,,0.00,629,Wunderground v.1.15,2013-10-04 17:35:00,
2013-10-04 11:00:00,70.7,29.0,30.08,NE,42,2.0,11.0,21,0.00,,,0.00,679,weatherlink.com 1.10,2013-10-04 18:00:00,
2013-10-04 11:15:00,70.3,28.0,30.08,North,360,3.0,11.0,21,0.00,,,0.00,698,weatherlink.com 1.10,2013-10-04 18:15:00,
2013-10-04 11:30:00,70.5,29.0,30.09,South,171,4.0,13.0,21,0.00,,,0.00,717,weatherlink.com 1.10,2013-10-04 18:30:00,
2013-10-04 11:45:00,71.2,30.0,30.09,ENE,69,1.0,8.0,22,0.00,,,0.00,737,weatherlink.com 1.10,2013-10-04 18:45:00,
2013-10-04 12:00:00,72.5,29.0,30.08,West,263,4.0,8.0,20,0.00,,,0.00,745,weatherlink.com 1.10,2013-10-04 19:00:00,
2013-10-04 12:15:00,72.7,30.0,30.07,ESE,111,0.0,11.0,21,0.00,,,0.00,758,weatherlink.com 1.10,2013-10-04 19:15:00,
2013-10-04 12:30:00,72.3,30.0,30.07,SW,219,4.0,13.0,21,0.00,,,0.00,104,weatherlink.com 1.10,2013-10-04 19:30:00,
2013-10-04 12:45:00,72.6,27.0,30.07,NE,48,4.0,7.0,18,0.00,,,0.00,330,weatherlink.com 1.10,2013-10-04 19:45:00,
2013-10-04 13:00:00,73.0,28.0,30.08,SE,131,3.0,9.0,19,0.00,,,0.00,195,weatherlink.com 1.10,2013-10-04 20:00:00,
2013-10-04 13:30:00,73.0,27.0,30.07,North,5,2.0,7.0,18,0.00,,,0.00,49,weatherlink.com 1.10,2013-10-04 20:30:00,
2013-10-04 13:45:00,73.2,28.0,30.06,SE,132,0.0,7.0,19,0.00,,,0.00,197,weatherlink.com 1.10,2013-10-04 20:45:00,
2013-10-04 14:00:00,73.1,26.0,30.05,NNE,30,0.0,7.0,17,0.00,,,0.00,309,weatherlink.com 1.10,2013-10-04 21:00:00,
2013-10-04 14:15:00,73.4,29.0,30.05,East,90,3.0,9.0,19,0.00,,,0.00,86,weatherlink.com 1.10,2013-10-04 21:15:00,
2013-10-04 14:30:00,73.7,29.0,30.05,North,350,3.0,7.0,19,0.00,,,0.00,102,weatherlink.com 1.10,2013-10-04 21:30:00,
2013-10-04 14:45:00,73.6,29.0,30.04,NNE,32,0.0,6.0,19,0.00,,,0.00,74,weatherlink.com 1.10,2013-10-04 21:45:00,
2013-10-04 15:00:00,73.8,28.0,30.04,NE,36,5.0,8.0,18,0.00,,,0.00,47,weatherlink.com 1.10,2013-10-04 22:00:00,
2013-10-04 15:15:00,74.6,28.0,30.04,ESE,115,1.0,6.0,18,0.00,,,0.00,58,weatherlink.com 1.10,2013-10-04 22:15:00,
2013-10-04 15:30:00,74.2,28.0,30.04,North,349,2.0,6.0,18,0.00,,,0.00,44,weatherlink.com 1.10,2013-10-04 22:30:00,
2013-10-04 15:45:00,74.6,28.0,30.04,SSW,197,0.0,5.0,18,0.00,,,0.00,35,weatherlink.com 1.10,2013-10-04 22:45:00,
2013-10-04 16:00:00,74.6,28.0,30.03,SE,134,1.0,5.0,18,0.00,,,0.00,35,weatherlink.com 1.10,2013-10-04 23:00:00,
2013-10-04 16:15:00,75.0,27.0,30.04,SE,128,2.0,10.0,17,0.00,,,0.00,30,weatherlink.com 1.10,2013-10-04 23:15:00,
2013-10-04 16:21:00,74.9,27.1,30.03,SSE,157,2.0,4.0,17,0.00,,,0.00,30,Wunderground v.1.15,2013-10-04 23:21:00,
2013-10-04 16:27:00,74.7,27.0,30.03,ESE,111,1.0,4.0,17,0.00,,,0.00,32,Wunderground v.1.15,2013-10-04 23:27:00,
2013-10-04 16:32:00,74.8,27.0,30.03,SSE,165,0.0,1.0,17,0.00,,,0.00,37,Wunderground v.1.15,2013-10-04 23:32:00,
2013-10-04 16:37:00,75.1,25.8,30.03,East,96,1.0,3.0,16,0.00,,,0.00,32,Wunderground v.1.15,2013-10-04 23:37:00,
2013-10-04 16:43:00,75.2,27.4,30.03,West,263,2.0,4.0,17,0.00,,,0.00,46,Wunderground v.1.15,2013-10-04 23:43:00,
2013-10-04 16:49:00,75.1,27.3,30.03,SSE,148,1.0,2.0,17,0.00,,,0.00,26,Wunderground v.1.15,2013-10-04 23:49:00,
2013-10-04 16:54:00,75.2,27.4,30.03,SE,126,1.0,4.0,17,0.00,,,0.00,28,Wunderground v.1.15,2013-10-04 23:54:00,
2013-10-04 17:00:00,75.3,26.0,30.03,SSW,213,2.0,2.0,16,0.00,,,0.00,26,Wunderground v.1.15,2013-10-05 00:00:00,
2013-10-04 17:06:00,75.1,27.3,30.03,WSW,240,1.0,2.0,17,0.00,,,0.00,113,Wunderground v.1.15,2013-10-05 00:06:00,
2013-10-04 17:15:00,75.0,27.2,30.03,NE,51,1.0,1.0,17,0.00,,,0.00,130,Wunderground v.1.15,2013-10-05 00:15:00,
2013-10-04 17:20:00,74.8,27.0,30.03,ESE,123,1.0,10.0,17,0.00,,,0.00,23,Wunderground v.1.15,2013-10-05 00:20:00,
2013-10-04 17:25:00,74.8,28.4,30.03,NNE,24,1.0,1.0,18,0.00,,,0.00,30,Wunderground v.1.15,2013-10-05 00:25:00,
2013-10-04 17:30:00,74.6,26.9,30.03,SSE,159,1.0,10.0,17,0.00,,,0.00,19,Wunderground v.1.15,2013-10-05 00:30:00,
2013-10-04 17:35:00,74.5,28.2,30.03,SSW,213,1.0,10.0,18,0.00,,,0.00,18,Wunderground v.1.15,2013-10-05 00:35:00,
2013-10-04 17:41:00,74.6,28.3,30.03,SSW,199,1.0,10.0,18,0.00,,,0.00,16,Wunderground v.1.15,2013-10-05 00:41:00,
2013-10-04 17:46:00,74.8,27.0,30.03,ESE,117,1.0,10.0,17,0.00,,,0.00,16,Wunderground v.1.15,2013-10-05 00:46:00,
2013-10-04 17:52:00,74.5,28.2,30.03,ESE,108,1.0,10.0,18,0.00,,,0.00,14,Wunderground v.1.15,2013-10-05 00:52:00,
2013-10-04 17:57:00,74.6,28.3,30.03,SE,134,1.0,10.0,18,0.00,,,0.00,14,Wunderground v.1.15,2013-10-05 00:57:00,
2013-10-04 18:03:00,74.4,28.1,30.03,SE,134,1.0,1.0,18,0.00,,,0.00,12,Wunderground v.1.15,2013-10-05 01:03:00,
2013-10-04 18:09:00,73.9,27.7,30.03,ESE,122,0.0,1.0,18,0.00,,,0.00,11,Wunderground v.1.15,2013-10-05 01:09:00,
2013-10-04 18:15:00,73.9,27.7,30.03,SSE,152,0.0,1.0,18,0.00,,,0.00,11,Wunderground v.1.15,2013-10-05 01:15:00,
2013-10-04 18:20:00,73.9,27.7,30.03,SSE,153,0.0,0.0,18,0.00,,,0.00,9,Wunderground v.1.15,2013-10-05 01:20:00,
2013-10-04 18:26:00,73.6,28.8,30.03,SSE,153,0.0,0.0,19,0.00,,,0.00,7,Wunderground v.1.15,2013-10-05 01:26:00,
2013-10-04 18:31:00,72.9,28.2,30.03,ESE,103,0.0,0.0,19,0.00,,,0.00,5,Wunderground v.1.15,2013-10-05 01:31:00,
2013-10-04 18:36:00,72.8,28.1,30.03,ESE,103,0.0,0.0,19,0.00,,,0.00,5,Wunderground v.1.15,2013-10-05 01:36:00,
2013-10-04 18:42:00,72.2,28.9,30.03,SSE,148,0.0,1.0,20,0.00,,,0.00,0,Wunderground v.1.15,2013-10-05 01:42:00,
2013-10-04 18:47:00,71.7,29.7,30.03,SSE,148,0.0,1.0,21,0.00,,,0.00,0,Wunderground v.1.15,2013-10-05 01:47:00,
2013-10-04 18:53:00,71.3,29.3,30.03,SSE,148,0.0,0.0,21,0.00,,,0.00,0,Wunderground v.1.15,2013-10-05 01:53:00,
2013-10-04 18:59:00,70.9,30.1,30.03,SSE,148,0.0,0.0,22,0.00,,,0.00,0,Wunderground v.1.15,2013-10-05 01:59:00,
2013-10-04 19:06:00,71.0,30.2,30.04,SSE,148,0.0,5.0,22,0.00,,,0.00,0,Wunderground v.1.15,2013-10-05 02:06:00,
2013-10-04 19:12:00,70.2,30.6,30.04,SSE,148,0.0,5.0,23,0.00,,,0.00,0,Wunderground v.1.15,2013-10-05 02:12:00,
2013-10-04 19:17:00,69.7,30.2,30.04,SSE,148,0.0,5.0,23,0.00,,,0.00,0,Wunderground v.1.15,2013-10-05 02:17:00,
2013-10-04 19:32:00,69.5,30.0,30.05,SSE,148,0.0,1.0,23,0.00,,,0.00,0,weatherlink.com 1.10,2013-10-05 02:32:00,
2013-10-04 19:47:00,69.4,30.0,30.05,SSE,148,0.0,2.0,23,0.00,,,0.00,0,weatherlink.com 1.10,2013-10-05 02:47:00,
2013-10-04 20:02:00,68.5,30.0,30.05,SSE,148,0.0,0.0,24,0.00,,,0.00,0,weatherlink.com 1.10,2013-10-05 03:02:00,
2013-10-04 20:17:00,67.9,31.0,30.05,SSE,148,0.0,1.0,25,0.00,,,0.00,0,weatherlink.com 1.10,2013-10-05 03:17:00,
2013-10-04 20:32:00,66.1,31.0,30.05,SSW,201,1.0,2.0,27,0.00,,,0.00,0,weatherlink.com 1.10,2013-10-05 03:32:00,
2013-10-04 20:47:00,64.3,30.0,30.06,SSW,201,1.0,2.0,28,0.00,,,0.00,0,weatherlink.com 1.10,2013-10-05 03:47:00,
2013-10-04 21:02:00,64.3,31.0,30.06,SSW,201,2.0,2.0,29,0.00,,,0.00,0,weatherlink.com 1.10,2013-10-05 04:02:00,
2013-10-04 21:17:00,64.5,31.0,30.06,SSW,202,1.0,2.0,28,0.00,,,0.00,0,weatherlink.com 1.10,2013-10-05 04:17:00,
2013-10-04 21:32:00,64.5,31.0,30.07,SSW,213,0.0,2.0,28,0.00,,,0.00,0,weatherlink.com 1.10,2013-10-05 04:32:00,
2013-10-04 21:47:00,63.5,31.0,30.07,SSW,213,1.0,2.0,30,0.00,,,0.00,0,weatherlink.com 1.10,2013-10-05 04:47:00,
2013-10-04 22:02:00,63.3,30.0,30.07,SSW,213,0.0,2.0,29,0.00,,,0.00,0,weatherlink.com 1.10,2013-10-05 05:02:00,
2013-10-04 22:17:00,64.5,30.0,30.07,SSW,213,1.0,2.0,27,0.00,,,0.00,0,weatherlink.com 1.10,2013-10-05 05:17:00,
2013-10-04 22:32:00,64.3,29.0,30.08,SSW,213,0.0,2.0,27,0.00,,,0.00,0,weatherlink.com 1.10,2013-10-05 05:32:00,
2013-10-04 22:47:00,64.2,29.0,30.08,SSW,213,0.0,1.0,27,0.00,,,0.00,0,weatherlink.com 1.10,2013-10-05 05:47:00,
2013-10-04 23:02:00,63.8,29.0,30.08,SSW,213,0.0,1.0,27,0.00,,,0.00,0,weatherlink.com 1.10,2013-10-05 06:02:00,
2013-10-04 23:17:00,63.6,29.0,30.09,SSW,213,0.0,1.0,27,0.00,,,0.00,0,weatherlink.com 1.10,2013-10-05 06:17:00,
2013-10-04 23:32:00,62.9,28.0,30.09,SSW,213,0.0,1.0,27,0.00,,,0.00,0,weatherlink.com 1.10,2013-10-05 06:32:00,
2013-10-04 23:47:00,63.5,29.0,30.09,SSW,213,0.0,1.0,27,0.00,,,0.00,0,weatherlink.com 1.10,2013-10-05 06:47:00,